Flag for Germany Weather past 2 weeks in Kempten, Bavaria, Germany

Now
41 °F

Overcast.


Feels Like: 38 °F
Forecast: 44 / 49 °F
Wind: 5 mph from South

Location: Kempten

Current Time: Dec 18, 2014 at 1:53:55 AM

Latest Report: Dec 18, 2014 at 1:00 AM


Visibility: 22 mi

Pressure: 30.05 "Hg

Humidity: 90%

Dew point: 39 °F

Location of KemptenLocation

Historic Weather in Kempten — Graph

°F

Kempten temperature yesterday

Maximum temperature yesterday: 41 °F (at 1:00 PM)
Minimum temperature yesterday: 35 °F (at 7:00 AM)
Average temperature yesterday: 38 °F

Past Weeks' High & Low Weather Summary

 TemperatureHumidityPressure
High51 °F (Dec 13, 2:00 PM)100% (Dec 5, 1:00 AM)30.50 "Hg (Dec 5, 1:00 AM)
Low24 °F (Dec 10, 7:00 AM)47% (Dec 13, 2:00 PM)29.84 "Hg (Dec 12, 9:00 PM)
Average37 °F85%30.09 "Hg
* Reported Dec 3 1:00 AM — Dec 18 1:00 AM, Kempten, Weather by CustomWeather, © 2014

Note: Actual official high and low records may vary slightly from our data, if they occured in-between our weather recording intervals... More about our weather records

Advertising

Kempten weather history for previous 24 hours

 ConditionsComfort  
Time TempWeatherWind HumidityBarometerVisibility
1:00 AM
Dec 18
41 °FOvercast.5 mph90%30.05 "Hg22 mi
12:00 AM41 °FDrizzle. Overcast.3 mph89%30.04 "Hg22 mi
11:00 PM
Dec 17
40 °FDrizzle. Overcast.5 mph93%30.02 "Hg10 mi
9:00 PM37 °FDrizzle. Overcast.5 mph93%30.00 "Hg4 mi
8:00 PM36 °FLight freezing rain. Overcast.5 mph92%29.98 "Hg8 mi
7:00 PM36 °FLight rain. Overcast.5 mph92%29.96 "Hg4 mi
6:00 PM36 °FLight rain. Overcast.5 mph92%29.93 "Hg5 mi
5:00 PM37 °FLight rain. Overcast.3 mph91%29.91 "Hg6 mi
4:00 PM38 °FLight rain. Overcast.5 mph90%29.89 "Hg4 mi
3:00 PM41 °FDrizzle. Partly sunny.3 mph78%29.87 "Hg19 mi
2:00 PM41 °FOvercast.3 mph78%29.88 "Hg25 mi
1:00 PM41 °FOvercast.3 mph79%29.90 "Hg22 mi
12:00 PM41 °FOvercast.3 mph81%29.94 "Hg19 mi
11:00 AM40 °FOvercast.3 mph82%29.97 "Hg18 mi
9:00 AM36 °FPartly sunny.2 mph93%30.02 "Hg9 mi
8:00 AM36 °FFog.2 mph97%30.03 "Hg4 mi
7:00 AM35 °FOvercast.2 mph97%30.04 "Hg4 mi
6:00 AM36 °FLight freezing rain. Low clouds.1 mph94%30.04 "Hg4 mi
5:00 AM36 °FLight rain. Overcast.1 mph94%30.03 "Hg7 mi
3:00 AM39 °FOvercast.2 mph90%30.03 "Hg16 mi
2:00 AM38 °FOvercast.1 mph91%30.03 "Hg16 mi
1:00 AM39 °FOvercast.2 mph89%30.02 "Hg16 mi
Weather by CustomWeather, © 2014

See weather overviewHow to use our weather pages